Terug naar catalogus

ARIANE 44LP DEB

ActiefHEO
NORAD 25539·DEBRIS·🇫🇷 France

Gelanceerd Dec 11, 1988 vanaf Guiana Space Centre

Loading…

Volgende Passages (komende 24 uur)

TLE

VersSource: Space-Track

Epoch: Sep 14, 2026, 05:51 UTC

1 25539U 88109F   26257.24390678  .00002316  00000-0  57203-2 0  9992
2 25539   7.1079 271.5067 6810967 329.8717   4.2609  2.78798074263523

Volg ARIANE 44LP DEB in realtime met AllMySat

Download on the App Store